User: anonymous   Login
Location: Omaha
(41.2590°N, 95.9380°W)
Time: 08:15:16
(UTC-06:00)
Language:

ISS - Orbit

View from above orbital plane
View from above orbital plane
View from above satellite
View from above satellite

Ground track
Ground track

The orbit data is extracted from the following two-line orbital elements,

1 25544U 98067A   17349.68641247  .00016717  00000-0  10270-3 0  9043
2 25544  51.6371 213.5244 0003113 247.2915 112.7909 15.54164177  9979
Epoch (UTC): 15 December 2017 16:28:26
Eccentricity: 0.0003113
inclination: 51.6371°
perigee height: 402 km
apogee height: 407 km
right ascension of ascending node: 213.5244°
argument of perigee: 247.2915°
revolutions per day: 15.54164177
mean anomaly at epoch: 112.7909°
orbit number at epoch: 997

The dashed part of the orbit path shows where the satellite is in the earth's shadow,  

DLR